[[{"header":{"parameterUnit":"m.s-1","parameterCategory":1,"la1":30.2991,"la2":30.254,"lo1":-89.0895,"lo2":-89.0444,"dy":0.0017,"dx":0.0017,"nx":28,"ny":28,"refTime":"2023-10-23T03:00:00:Z","depth":0,"parameterNumber":2,"parameterNumberName":"U-component_of_WINDS"},"data":[0,0,0,0,0,0,0,0,0,0,0,0,0,0,0,0,0,0,0,0,0,0,0,0,0,0,0,0,0,0,0,0,0,0,0,0,0,0,0,0,0,0,0,0,0,0,0,0,0,0,0,0,0,0,0,0,0,0,-0.5578,-0.5578,0,-0.5602,-0.5602,-0.5602,-0.5572,-0.5571,-0.557,-0.5569,-0.5594,-0.5596,-0.5597,0,0,0,0,0,0,0,0,0,0,0,0,0,-0.5507,-0.5508,-0.5578,-0.5578,-0.5578,-0.5602,-0.5602,-0.5602,-0.5572,-0.5571,-0.557,-0.5568,-0.5593,-0.5595,-0.5598,0,0,0,0,0,0,0,0,0,0,0,0,0,-0.5535,-0.5509,-0.5578,-0.5566,-0.5565,-0.5602,-0.5602,-0.5602,-0.5573,-0.5571,-0.5569,-0.5568,-0.5593,-0.5595,-0.5598,-0.5647,0,0,-0.5606,-0.5607,0,0,0,0,0,0,0,0,-0.5533,-0.5538,-0.5568,-0.5567,-0.5566,-0.5582,-0.5586,-0.5617,-0.5573,-0.557,-0.5569,-0.5567,-0.5591,-0.5594,-0.5602,-0.5648,-0.5649,-0.5606,-0.5607,-0.5608,-0.5609,0,0,0,0,0,0,0,-0.5531,-0.5536,-0.5587,-0.5568,-0.5567,-0.556,-0.5562,-0.5592,-0.559,-0.557,-0.5568,-0.5571,-0.5591,-0.56,-0.5603,-0.5649,-0.5606,-0.5608,-0.561,-0.5611,-0.5736,-0.5738,0,0,0,0,0,0,-0.5531,-0.5535,-0.5587,-0.5588,-0.5545,-0.5563,-0.5565,-0.5579,-0.5589,-0.5589,-0.5572,-0.557,-0.5596,-0.56,-0.5603,-0.5661,-0.5608,-0.5611,-0.5612,-0.5734,-0.5736,-0.5738,0,0,0,0,0,0,-0.5529,-0.5536,-0.5586,-0.5561,-0.5567,-0.5566,-0.5581,-0.558,-0.5589,-0.5591,-0.5591,-0.5582,-0.5595,-0.56,-0.5636,-0.5662,-0.5612,-0.5614,-0.5732,-0.5735,-0.5737,-0.5778,0,0,0,0,0,0,-0.5527,-0.5535,-0.5554,-0.5562,-0.5568,-0.5618,-0.5583,-0.5582,-0.5593,-0.559,-0.56,-0.56,-0.5594,-0.5632,-0.5639,-0.5664,-0.5616,-0.573,-0.5733,-0.5736,-0.5774,-0.5781,-0.5788,0,0,0,0,0,-0.5525,-0.5565,-0.5555,-0.5561,-0.5591,-0.562,-0.5623,-0.5615,-0.5596,-0.5614,-0.5615,-0.56,-0.5658,-0.5636,-0.5643,-0.567,-0.5728,-0.5732,-0.5736,-0.5771,-0.578,-0.5788,0,0,0,0,0,0,-0.5561,-0.5565,-0.5555,-0.5598,-0.5609,-0.5614,-0.5638,-0.5625,-0.5642,-0.5638,-0.5627,-0.563,-0.5669,-0.5673,-0.5649,-0.5718,-0.569,-0.5695,-0.5714,-0.5722,-0.5729,-0.5728,-0.5618,0,0,0,0,0,-0.5573,-0.5596,-0.5599,-0.5637,-0.5642,-0.5639,-0.5651,-0.5644,-0.5655,-0.5659,-0.5663,-0.5674,-0.5695,-0.5708,-0.5728,-0.5774,-0.5776,-0.5796,-0.5803,-0.5808,-0.5814,-0.5838,-0.5847,-0.5751,-0.5751,-0.5751,0,0,-0.56,-0.5606,-0.562,-0.5644,-0.5651,-0.5675,-0.5643,-0.5669,-0.5687,-0.5663,-0.5698,-0.5701,-0.5712,-0.5754,-0.5772,-0.5759,-0.584,-0.5813,-0.5818,-0.582,-0.5843,-0.5853,-0.5861,-0.5754,-0.5754,-0.5753,0,0,-0.5661,-0.5667,-0.57,-0.5707,-0.5719,-0.5716,-0.5724,-0.5731,-0.5733,-0.5767,-0.5749,-0.577,-0.5806,-0.5814,-0.5824,-0.5887,-0.5873,-0.5894,-0.593,-0.5954,-0.5962,-0.5968,-0.5991,-0.6,-0.5899,-0.5899,-0.5899,0,-0.5694,-0.5728,-0.5718,-0.5745,-0.5756,-0.5735,-0.5768,-0.5776,-0.5793,-0.5801,-0.5785,-0.5829,-0.5835,-0.5878,-0.5894,-0.5902,-0.591,-0.5893,-0.5961,-0.5968,-0.5974,-0.5996,-0.6005,-0.5901,-0.5901,-0.5901,-0.59,0,-0.5767,-0.5791,-0.5816,-0.5833,-0.5846,-0.5876,-0.587,-0.5885,-0.5877,-0.5876,-0.5911,-0.5917,-0.5937,-0.5947,-0.5939,-0.5989,-0.598,-0.5963,-0.5935,-0.5986,-0.6006,-0.6014,-0.5905,-0.5904,-0.5903,-0.5902,0,0,-0.5853,-0.5862,-0.5872,-0.5879,-0.5889,-0.5908,-0.5937,-0.5956,-0.5969,-0.5981,-0.6005,-0.6035,-0.6019,-0.603,-0.6022,-0.6043,-0.6094,-0.6024,-0.6024,-0.6037,-0.615,-0.6163,-0.6173,-0.6084,-0.6086,-0.6087,-0.6149,0,-0.5914,-0.5964,-0.5955,-0.6004,-0.6026,-0.6005,-0.603,-0.604,-0.6039,-0.6058,-0.6058,-0.608,-0.6056,-0.6063,-0.6083,-0.6083,-0.6116,-0.6079,-0.6107,-0.6108,-0.6105,-0.6184,-0.6198,-0.6257,-0.6157,-0.6158,-0.6159,0,-0.5993,-0.6008,-0.6058,-0.6065,-0.6074,-0.6097,-0.6113,-0.6131,-0.6141,-0.6139,-0.6151,-0.6139,-0.6168,-0.6138,-0.6177,-0.6152,-0.6163,-0.6165,-0.6167,-0.617,-0.6137,-0.619,-0.6275,-0.6284,-0.6171,-0.617,-0.6169,0,-0.6051,-0.6083,-0.6118,-0.6124,-0.6133,-0.6149,-0.6153,-0.6161,-0.6173,-0.6188,-0.6195,-0.6213,-0.6223,-0.6237,-0.623,-0.6209,-0.6271,-0.6241,-0.627,-0.6271,-0.6285,-0.6285,-0.6374,-0.6291,-0.6291,-0.6291,-0.629,0,-0.6121,-0.6153,-0.6144,-0.6165,-0.62,-0.6189,-0.6224,-0.6226,-0.6233,-0.6255,-0.6238,-0.6258,-0.6248,-0.6267,-0.6262,-0.6296,-0.63,-0.63,-0.6298,-0.6302,-0.6302,-0.6309,-0.6306,-0.6293,-0.6292,-0.6292,-0.6292,0,-0.6193,-0.6188,-0.6224,-0.6228,-0.623,-0.6256,-0.626,-0.628,-0.6277,-0.6304,-0.631,-0.6307,-0.6329,-0.6324,-0.6348,-0.6344,-0.6387,-0.638,-0.6384,-0.6382,-0.6412,-0.641,-0.6511,-0.6524,-0.6431,-0.6432,-0.6433,0,-0.6238,-0.6262,-0.6269,-0.6282,-0.6287,-0.6308,-0.632,-0.631,-0.6323,-0.6336,-0.6354,-0.6375,-0.6391,-0.6427,-0.6427,-0.6445,-0.6439,-0.6473,-0.6441,-0.6444,-0.644,-0.6439,-0.6441,-0.6479,-0.648,-0.6481,-0.6482,0,-0.632,-0.6316,-0.6334,-0.6351,-0.6365,-0.6378,-0.6389,-0.6401,-0.6392,-0.6407,-0.6429,-0.6442,-0.6466,-0.6486,-0.6503,-0.6507,-0.6493,-0.6491,-0.6499,-0.6504,-0.6505,-0.6505,-0.6401,-0.649,-0.6489,-0.6488,-0.6488,-0.6487,-0.638,-0.64,-0.6408,-0.6429,-0.6436,-0.6447,-0.6465,-0.6465,-0.6484,-0.6503,-0.6495,-0.6521,-0.6529,-0.655,-0.6556,-0.6576,-0.6563,-0.6574,-0.6578,-0.6581,-0.6585,-0.6501,-0.6579,-0.6579,-0.6578,-0.6578,-0.6578,0,-0.6461,-0.6465,-0.6484,-0.65,-0.6516,-0.65,-0.6512,-0.6526,-0.6549,-0.6558,-0.6574,-0.6599,-0.6618,-0.662,-0.6638,-0.6653,-0.6648,-0.6659,-0.6658,-0.6659,-0.6595,-0.6587,-0.6663,-0.6663,-0.6663,-0.6663,-0.6663,-0.6663,-0.6506,-0.6539,-0.6536,-0.6573,-0.6577,-0.6601,-0.6609,-0.6619,-0.6626,-0.6655,-0.6671,-0.6671,-0.6677,-0.6696,-0.6713,-0.6713,-0.6721,-0.6734,-0.6732,-0.6672,-0.6664,-0.6656,-0.6648,-0.6736,-0.6736,-0.6794,-0.6795,-0.6795]},{"header":{"parameterUnit":"m.s-1","parameterCategory":1,"la1":30.2991,"la2":30.254,"lo1":-89.0895,"lo2":-89.0444,"dy":0.0017,"dx":0.0017,"nx":28,"ny":28,"refTime":"2023-10-23T03:00:00:Z","depth":0,"parameterNumber":3,"parameterNumberName":"V-component_of_WINDS"},"data":[0,0,0,0,0,0,0,0,0,0,0,0,0,0,0,0,0,0,0,0,0,0,0,0,0,0,0,0,0,0,0,0,0,0,0,0,0,0,0,0,0,0,0,0,0,0,0,0,0,0,0,0,0,0,0,0,0,0,-1.1783,-1.1784,0,-1.1827,-1.1827,-1.1828,-1.1833,-1.1833,-1.1832,-1.1832,-1.1874,-1.1876,-1.1877,0,0,0,0,0,0,0,0,0,0,0,0,0,-1.1702,-1.1704,-1.1783,-1.1784,-1.1784,-1.1827,-1.1827,-1.1828,-1.1833,-1.1833,-1.1832,-1.1832,-1.1874,-1.1875,-1.1877,0,0,0,0,0,0,0,0,0,0,0,0,0,-1.1741,-1.1704,-1.1783,-1.1792,-1.1793,-1.1827,-1.1827,-1.1828,-1.1833,-1.1833,-1.1832,-1.1831,-1.1873,-1.1875,-1.1878,-1.1904,0,0,-1.1885,-1.1886,0,0,0,0,0,0,0,0,-1.1739,-1.1744,-1.179,-1.1792,-1.1793,-1.1824,-1.1814,-1.1854,-1.1833,-1.1818,-1.1832,-1.1831,-1.1858,-1.1861,-1.1871,-1.1906,-1.1908,-1.1885,-1.1886,-1.1887,-1.1888,0,0,0,0,0,0,0,-1.1736,-1.1742,-1.18,-1.1791,-1.1793,-1.1793,-1.1798,-1.1822,-1.1841,-1.1819,-1.182,-1.1825,-1.1858,-1.1869,-1.1872,-1.1909,-1.1885,-1.1887,-1.1888,-1.1889,-1.1968,-1.1969,0,0,0,0,0,0,-1.1732,-1.174,-1.1799,-1.1802,-1.1764,-1.1795,-1.1801,-1.1815,-1.1841,-1.1844,-1.1826,-1.1825,-1.1865,-1.1869,-1.1873,-1.1907,-1.1887,-1.1889,-1.1891,-1.1968,-1.1968,-1.1969,0,0,0,0,0,0,-1.173,-1.1737,-1.1797,-1.1771,-1.1779,-1.1797,-1.1813,-1.1816,-1.1826,-1.1845,-1.1849,-1.1833,-1.1865,-1.187,-1.1897,-1.1908,-1.189,-1.1892,-1.1967,-1.1968,-1.1969,-1.1973,0,0,0,0,0,0,-1.1728,-1.1736,-1.1747,-1.1771,-1.178,-1.1821,-1.1814,-1.1817,-1.183,-1.183,-1.1853,-1.1856,-1.1865,-1.1893,-1.1899,-1.1911,-1.1894,-1.1966,-1.1967,-1.1969,-1.1972,-1.1974,-1.1976,0,0,0,0,0,-1.1725,-1.1746,-1.1748,-1.1755,-1.1794,-1.1821,-1.1826,-1.1837,-1.1831,-1.1842,-1.1854,-1.1855,-1.1906,-1.1896,-1.1903,-1.1915,-1.1965,-1.1967,-1.1968,-1.1971,-1.1974,-1.1976,0,0,0,0,0,0,-1.1723,-1.175,-1.1752,-1.1782,-1.1799,-1.1822,-1.1836,-1.1839,-1.1858,-1.1857,-1.1868,-1.1873,-1.1899,-1.191,-1.1898,-1.1942,-1.1935,-1.1938,-1.1935,-1.1937,-1.1939,-1.1936,-1.1896,0,0,0,0,0,-1.1726,-1.1746,-1.1768,-1.1793,-1.1802,-1.1817,-1.183,-1.1836,-1.1854,-1.1862,-1.1876,-1.1893,-1.1913,-1.1926,-1.1945,-1.1973,-1.1978,-1.1985,-1.1987,-1.1989,-1.1991,-1.2007,-1.201,-1.1975,-1.1975,-1.1975,0,0,-1.1732,-1.1749,-1.1762,-1.1793,-1.1807,-1.1828,-1.1824,-1.1845,-1.186,-1.1865,-1.1891,-1.1902,-1.1922,-1.195,-1.1962,-1.1959,-1.2002,-1.1991,-1.1992,-1.1994,-1.2009,-1.2012,-1.2015,-1.1976,-1.1976,-1.1975,0,0,-1.1754,-1.177,-1.1792,-1.1806,-1.1829,-1.1839,-1.1844,-1.1867,-1.1875,-1.1901,-1.1905,-1.1922,-1.1956,-1.197,-1.1982,-1.2009,-1.2011,-1.2015,-1.2026,-1.2041,-1.2044,-1.2046,-1.2056,-1.2059,-1.2018,-1.2018,-1.2018,0,-1.1759,-1.1791,-1.1802,-1.1824,-1.1838,-1.1843,-1.1865,-1.1878,-1.1905,-1.1914,-1.191,-1.1953,-1.1967,-1.1998,-1.2005,-1.2014,-1.202,-1.2013,-1.2042,-1.2045,-1.2048,-1.2057,-1.2061,-1.2018,-1.2018,-1.2018,-1.2018,0,-1.1796,-1.1818,-1.1833,-1.186,-1.1875,-1.1896,-1.191,-1.1924,-1.1929,-1.1939,-1.1966,-1.1983,-1.2006,-1.2013,-1.2018,-1.2045,-1.2042,-1.204,-1.2033,-1.2051,-1.206,-1.2064,-1.2019,-1.2018,-1.2018,-1.2018,0,0,-1.1818,-1.1851,-1.1857,-1.1869,-1.1894,-1.191,-1.1932,-1.1955,-1.1966,-1.1985,-1.2003,-1.2031,-1.203,-1.2043,-1.2049,-1.2062,-1.2083,-1.2059,-1.2059,-1.2063,-1.2113,-1.2115,-1.2119,-1.2084,-1.2085,-1.2085,-1.2112,0,-1.1843,-1.1883,-1.1894,-1.1927,-1.1947,-1.1953,-1.1972,-1.1989,-1.1999,-1.2017,-1.2028,-1.2048,-1.2044,-1.2052,-1.2066,-1.2078,-1.2093,-1.2076,-1.21,-1.2101,-1.2095,-1.2123,-1.2125,-1.2149,-1.2115,-1.2116,-1.2116,0,-1.1878,-1.1898,-1.1934,-1.1956,-1.1965,-1.1982,-1.2004,-1.2021,-1.204,-1.2046,-1.2061,-1.2066,-1.2088,-1.208,-1.211,-1.2098,-1.2108,-1.2116,-1.2117,-1.2119,-1.211,-1.2127,-1.2157,-1.216,-1.2122,-1.2121,-1.2121,0,-1.1891,-1.1926,-1.1952,-1.1962,-1.1989,-1.2001,-1.2012,-1.2031,-1.2044,-1.2063,-1.2071,-1.2092,-1.2103,-1.2119,-1.2129,-1.2122,-1.2158,-1.2151,-1.2164,-1.2164,-1.2171,-1.2171,-1.2203,-1.2178,-1.2178,-1.2178,-1.2178,0,-1.1917,-1.1939,-1.1958,-1.1974,-1.1998,-1.201,-1.2033,-1.2045,-1.2061,-1.2079,-1.2084,-1.2101,-1.2113,-1.2131,-1.2139,-1.2163,-1.2168,-1.2173,-1.2175,-1.2173,-1.2172,-1.218,-1.2179,-1.2179,-1.2179,-1.2178,-1.2178,0,-1.1936,-1.1949,-1.1978,-1.2001,-1.2007,-1.2024,-1.2043,-1.2059,-1.2069,-1.2092,-1.2097,-1.2114,-1.2135,-1.2147,-1.2173,-1.2179,-1.2205,-1.2206,-1.2199,-1.22,-1.2212,-1.2211,-1.2251,-1.2257,-1.2228,-1.2228,-1.2228,0,-1.1952,-1.1969,-1.1994,-1.2007,-1.2019,-1.2039,-1.2052,-1.2064,-1.2078,-1.2101,-1.2113,-1.2135,-1.2153,-1.2187,-1.22,-1.2221,-1.2222,-1.2235,-1.2225,-1.2222,-1.2222,-1.2221,-1.2223,-1.2236,-1.2237,-1.2237,-1.2237,0,-1.1979,-1.1985,-1.2005,-1.2028,-1.2044,-1.2062,-1.2079,-1.2089,-1.2104,-1.2119,-1.2141,-1.2155,-1.2183,-1.2204,-1.2225,-1.2236,-1.2239,-1.224,-1.2244,-1.2242,-1.2237,-1.224,-1.2204,-1.2239,-1.2239,-1.2239,-1.2239,-1.2239,-1.1997,-1.2012,-1.2033,-1.2054,-1.2069,-1.2085,-1.2101,-1.2114,-1.2133,-1.2157,-1.2162,-1.2186,-1.2204,-1.2233,-1.2244,-1.2262,-1.226,-1.2266,-1.2267,-1.2268,-1.2269,-1.2234,-1.2266,-1.2266,-1.2266,-1.2266,-1.2266,0,-1.2025,-1.2038,-1.2058,-1.2083,-1.21,-1.2102,-1.2122,-1.2136,-1.2156,-1.2173,-1.2191,-1.2217,-1.2237,-1.2253,-1.2274,-1.2285,-1.2287,-1.229,-1.2289,-1.2292,-1.227,-1.2264,-1.2288,-1.2288,-1.2288,-1.2288,-1.2288,-1.2288,-1.2041,-1.2067,-1.2076,-1.2109,-1.2122,-1.2145,-1.2156,-1.2171,-1.2185,-1.2213,-1.2231,-1.2241,-1.2257,-1.2279,-1.2298,-1.2302,-1.2309,-1.2313,-1.2317,-1.2296,-1.2293,-1.2291,-1.2286,-1.2314,-1.2314,-1.2337,-1.2337,-1.2337]}]]